Regional Weather Roundup
Issued by NWS

Home | Current Version | Previous Version | Text Only | Print | Product List | Glossary On
Versions: 1 2 3 4 5 6 7 8 9 10 11 12 13 14 15 16 17 18 19 20 21 22 23 24 25 26 27 28 29 30 31 32 33 34 35 36 37 38 39 40 41 42 43 44 45 46 47 48 49 50
000
ASUS45 KABQ 210410
RWRNM
WEATHER ROUNDUP FOR NEW MEXICO
NATIONAL WEATHER SERVICE ALBUQUERQUE NM
1000 PM MDT SUN APR 20 2014

NOTE: "FAIR" MEANS FEW OR NO CLOUDS BELOW 12,000 FEET AGL WITH NO
       SIGNIFICANT WEATHER OR OBSTRUCTIONS TO VISION.

      THIS PRODUCT IS RELEASED AS TWO VERSIONS.  ONE VERSION NEAR
      THE TOP OF THE HOUR CONTAINING PRELIMINARY DATA FROM ALBUQUERQUE
      AND OTHER STATIONS.  A FINAL VERSION WITH ADDITIONAL DATA IS
      ISSUED ABOUT 10 MINUTES AFTER THE HOUR.

NMZ501-503-504-510>518-210500-
NORTHWEST PLATEAU/NORTHCENTRAL MOUNTAINS

CITY           SKY/WX    TMP DP  RH WIND       PRES   REMARKS
FARMINGTON     CLEAR     59  27  29 N7        30.11R
LOS ALAMOS     MOCLDY    59  29  32 NW5       30.19S
SANTA FE       CLOUDY    56  34  43 N5        30.14R
TAOS           CLOUDY    48  39  71 E10       30.23R
ANGEL FIRE     FAIR      44  36  73 S3        30.28S

$$
NMZ402-403-502-505>509-210500-
WESTCENTRAL MOUNTAINS/SOUTHWEST MOUNTAINS

CITY           SKY/WX    TMP DP  RH WIND       PRES   REMARKS
GALLUP         CLEAR     49  22  34 SW3       30.21R
GRANTS         PTCLDY    56  29  35 N5        30.21R
SILVER CITY    PTCLDY    54  45  71 NW6       30.20S

$$
NMZ407-409-411-412-210500-
SOUTHERN DESERTS

CITY           SKY/WX    TMP DP  RH WIND       PRES   REMARKS
LORDSBURG      FAIR      63  43  48 SW3       30.12S
DEMING         PTCLDY    62  41  46 W6        30.12R
LAS CRUCES     PTCLDY    63  33  32 W9        30.13R
HOLLOMAN AFB   CLEAR     64  42  45 S3        30.09R
ALAMOGORDO     CLEAR     59  37  44 E6        30.10R
T OR C         PTCLDY    60  39  45 W5        30.12R

$$
NMZ519>523-210500-
CENTRAL VALLEYS/CENTRAL HIGHLANDS

CITY           SKY/WX    TMP DP  RH WIND       PRES   REMARKS
ALBUQUERQUE    MOCLDY    65  35  33 SE14      30.11R
DOUBLE EAGLE   PTCLDY    57  22  26 NW8       30.13S
MORIARTY ARPT  MOCLDY    53  36  52 SW5       30.16R
CLINES CORNERS CLOUDY    52  42  69 E7        30.19R
BELEN          FAIR      61  37  41 SW8       30.11R
SOCORRO        FAIR      62  40  43 S6        30.10S

$$
NMZ524>526-539-540-210500-
SOUTHCENTRAL MOUNTAINS

CITY           SKY/WX    TMP DP  RH WIND       PRES   REMARKS
RUIDOSO        CLEAR     50  36  57 SW6       30.23R

$$
NMZ527>531-210500-
NORTHEAST HIGHLANDS/NORTHEAST PLAINS

CITY           SKY/WX    TMP DP  RH WIND       PRES   REMARKS
LAS VEGAS      MOCLDY    46  43  89 NE6       30.20R
RATON          MOCLDY    49  42  77 N7        30.16R
CLAYTON        PTCLDY    57  39  51 W8        30.07R

$$
NMZ532>537-210500-
EASTCENTRAL PLAINS

CITY           SKY/WX    TMP DP  RH WIND       PRES   REMARKS
TUCUMCARI      CLEAR     58  40  51 W9        30.04R
CANNON AFB     MOCLDY    60  44  56 W6        30.06R
CLOVIS AIRPORT   N/A     55  46  71 NW7       30.08S

$$
NMZ028-029-538-210500-
SOUTHEAST PLAINS

CITY           SKY/WX    TMP DP  RH WIND       PRES   REMARKS
ROSWELL        CLEAR     68  39  34 VRB3      30.04R
ARTESIA        CLEAR     63  43  48 W12       30.04R
CARLSBAD       CLEAR     65  46  50 SW9       30.02R
HOBBS          CLEAR     59  43  55 SW5       30.06S


$$



USA.gov is the U.S. government's official web portal to all federal, state and local government web resources and services.